KF7MJQ-10 Weather Reports


Display with metric or nautical units.
time (UTC)temp
F
wind
direction
speed
MPH
gust
MPH
rain 1hr
in
rain 24hr
in
rain mn
in
humidity
%
barometer
mb
20260831034553 58 207 0.0 1.0 0.00 0.00 0.00 1 1017.4
20260831034030 58 155 0.0 1.0 0.00 0.00 0.00 1 1017.3
20260831033529 58 60 0.0 0.0 0.00 0.00 0.00 1 1017.3
20260831033029 59 60 0.0 1.0 0.00 0.00 0.00 1 1017.3
20260831032532 58 60 0.0 1.0 0.00 0.00 0.00 1 1017.3
20260831032026 58 86 0.0 1.0 0.00 0.00 0.00 1 1017.4
20260831031528 58 102 0.0 0.0 0.00 0.00 0.00 1 1017.4
20260831031006 58 101 0.0 1.0 0.00 0.00 0.00 1 1017.3
20260831030504 58 101 0.0 1.0 0.00 0.00 0.00 1 1017.4
20260831030003 58 103 0.0 0.0 0.00 0.00 0.00 1 1017.3
20260831025502 59 103 0.0 0.0 0.00 0.00 0.00 1 1017.4
20260831025100 59 103 0.0 0.0 0.00 0.00 0.00 1 1017.4
20260831024619 59 308 0.0 0.0 0.00 0.00 0.00 1 1017.4
20260831024057 59 307 0.0 0.0 0.00 0.00 0.00 1 1017.5
20260831023538 60 308 0.0 0.0 0.00 0.00 0.00 1 1017.5
20260831023037 60 65 0.0 0.0 0.00 0.00 0.00 1 1017.6
20260831022536 61 280 0.0 1.0 0.00 0.00 0.00 1 1017.6
20260831022034 61 56 0.0 1.0 0.00 0.00 0.00 1 1017.7
20260831021533 61 57 0.0 1.0 0.00 0.00 0.00 1 1017.7
20260831021033 62 72 0.0 1.0 0.00 0.00 0.00 1 1017.8
20260831020513 62 103 0.0 1.0 0.00 0.00 0.00 1 1017.8
20260831020011 62 106 0.0 1.0 0.00 0.00 0.00 1 1017.8
20260831015509 62 259 0.0 3.0 0.00 0.00 0.00 1 1017.9
20260831015013 63 71 0.0 3.0 0.00 0.00 0.00 1 1017.9
20260831014511 64 57 0.0 1.0 0.00 0.00 0.00 1 1017.9
20260831014005 64 103 0.0 2.0 0.00 0.00 0.00 1 1017.9
20260831013547 64 224 0.0 2.0 0.00 0.00 0.00 1 1018.0
20260831013046 64 224 0.0 2.0 0.00 0.00 0.00 1 1018.0
20260831012545 65 54 0.0 5.0 0.00 0.00 0.00 1 1018.0
20260831012043 65 328 0.0 5.0 0.00 0.00 0.00 1 1018.1
20260831011544 66 53 0.0 1.0 0.00 0.00 0.00 1 1018.1
20260831011040 65 279 0.0 1.0 0.00 0.00 0.00 1 1018.1
20260831010521 65 226 0.0 3.0 0.00 0.00 0.00 1 1018.2
20260831010029 65 253 0.0 2.0 0.00 0.00 0.00 1 1018.2
20260831005518 65 224 0.0 2.0 0.00 0.00 0.00 1 1018.2
20260831005017 64 224 0.0 2.0 0.00 0.00 0.00 1 1018.2
20260831004515 64 243 0.0 4.0 0.00 0.00 0.00 1 1018.3
20260831004013 64 287 0.0 4.0 0.00 0.00 0.00 1 1018.2
20260831003555 65 26 0.0 4.0 0.00 0.00 0.00 1 1018.3
20260831003054 65 63 0.0 0.0 0.00 0.00 0.00 1 1018.3
20260831002552 65 52 0.0 2.0 0.00 0.00 0.00 1 1018.5
20260831002050 65 325 0.0 3.0 0.00 0.00 0.00 1 1018.5
20260831001554 65 271 0.0 3.0 0.00 0.00 0.00 1 1018.5
20260831001048 65 356 0.0 1.0 0.00 0.00 0.00 1 1018.6
20260831000529 65 281 0.0 5.0 0.00 0.00 0.00 1 1018.6
20260831000027 65 302 0.0 2.0 0.00 0.00 0.00 1 1018.6
20260830235532 65 34 0.0 3.0 0.00 0.00 0.00 1 1018.7
20260830235027 65 104 0.0 3.0 0.00 0.00 0.00 2 1018.7
20260830234537 66 314 0.0 3.0 0.00 0.00 0.00 4 1018.8
20260830234021 66 284 0.0 3.0 0.00 0.00 0.00 1 1018.8
20260830233502 66 291 0.0 3.0 0.00 0.00 0.00 1 1018.9
20260830233002 66 44 0.0 3.0 0.00 0.00 0.00 1 1018.9
20260830232600 66 89 0.0 3.0 0.00 0.00 0.00 1 1019.0
20260830232100 66 262 0.0 3.0 0.00 0.00 0.00 1 1019.0
20260830231602 66 224 0.0 3.0 0.00 0.00 0.00 1 1019.1
20260830231055 66 243 0.0 3.0 0.00 0.00 0.00 1 1019.1
20260830230538 66 208 0.0 3.0 0.00 0.00 0.00 1 1019.1
20260830230038 66 243 0.0 2.0 0.00 0.00 0.00 1 1019.1
20260830225534 67 233 0.0 4.0 0.00 0.00 0.00 1 1019.2
20260830225034 66 229 0.0 4.0 0.00 0.00 0.00 1 1019.2
20260830224537 67 300 0.0 4.0 0.00 0.00 0.00 4 1019.3
20260830224032 67 229 0.0 4.0 0.00 0.00 0.00 2 1019.3
20260830223511 67 277 0.0 5.0 0.00 0.00 0.00 3 1019.4
20260830223017 67 226 1.0 5.0 0.00 0.00 0.00 7 1019.4
20260830222507 67 231 3.0 6.0 0.00 0.00 0.00 5 1019.5
20260830222009 68 231 1.0 4.0 0.00 0.00 0.00 7 1019.5
20260830221506 68 309 0.0 4.0 0.00 0.00 0.00 8 1019.5
20260830221006 68 279 0.0 3.0 0.00 0.00 0.00 7 1019.5
20260830220548 68 280 1.0 4.0 0.00 0.00 0.00 5 1019.6
20260830220045 68 246 1.0 4.0 0.00 0.00 0.00 9 1019.7
20260830215545 68 81 0.0 3.0 0.00 0.00 0.00 7 1019.7
20260830215042 68 222 0.0 4.0 0.00 0.00 0.00 6 1019.8
20260830214540 68 217 1.0 4.0 0.00 0.00 0.00 6 1019.9
20260830214044 68 195 1.0 5.0 0.00 0.00 0.00 9 1019.8
20260830213520 67 232 1.0 5.0 0.00 0.00 0.00 10 1019.8
20260830213018 68 227 2.0 5.0 0.00 0.00 0.00 9 1019.8
20260830212518 68 242 0.0 5.0 0.00 0.00 0.00 12 1019.7
20260830212018 68 231 2.0 5.0 0.00 0.00 0.00 11 1019.9
20260830211514 68 224 2.0 5.0 0.00 0.00 0.00 11 1019.9
20260830211013 68 211 1.0 6.0 0.00 0.00 0.00 11 1019.8
20260830210612 69 238 1.0 6.0 0.00 0.00 0.00 9 1019.8
20260830210058 68 285 0.0 5.0 0.00 0.00 0.00 9 1019.8
20260830205555 68 224 3.0 5.0 0.00 0.00 0.00 12 1019.8
20260830205054 68 242 1.0 4.0 0.00 0.00 0.00 10 1019.8
20260830204553 68 288 0.0 3.0 0.00 0.00 0.00 10 1019.8
20260830204051 68 238 1.0 3.0 0.00 0.00 0.00 10 1019.9
20260830203550 68 242 1.0 3.0 0.00 0.00 0.00 12 1019.9
20260830203049 68 229 0.0 3.0 0.00 0.00 0.00 7 1019.8
20260830202548 68 245 0.0 4.0 0.00 0.00 0.00 7 1019.8
20260830202045 68 229 0.0 5.0 0.00 0.00 0.00 8 1019.9
20260830201607 69 210 1.0 5.0 0.00 0.00 0.00 1 1019.9
20260830201043 68 73 0.0 3.0 0.00 0.00 0.00 1 1019.9
20260830200541 68 287 0.0 3.0 0.00 0.00 0.00 1 1019.9
20260830200040 68 240 0.0 3.0 0.00 0.00 0.00 3 1019.9
20260830195541 68 231 0.0 5.0 0.00 0.00 0.00 2 1019.9
20260830195037 68 229 2.0 5.0 0.00 0.00 0.00 4 1019.9
20260830194536 68 293 0.0 3.0 0.00 0.00 0.00 3 1019.9
20260830194034 68 75 0.0 5.0 0.00 0.00 0.00 1 1019.9
20260830193532 68 219 2.0 5.0 0.00 0.00 0.00 2 1020.0
20260830193036 68 38 0.0 4.0 0.00 0.00 0.00 2 1020.0
20260830192529 68 229 2.0 6.0 0.00 0.00 0.00 2 1020.1
20260830192027 69 204 0.0 4.0 0.00 0.00 0.00 1 1020.0
20260830191531 69 273 0.0 3.0 0.00 0.00 0.00 1 1020.1
20260830191031 68 235 0.0 3.0 0.00 0.00 0.00 1 1020.1
20260830190523 68 247 0.0 3.0 0.00 0.00 0.00 1 1020.1
20260830190011 68 231 1.0 3.0 0.00 0.00 0.00 1 1020.2
20260830185502 68 338 0.0 5.0 0.00 0.00 0.00 1 1020.2
20260830185001 68 240 2.0 5.0 0.00 0.00 0.00 1 1020.2
20260830184559 68 227 2.0 3.0 0.00 0.00 0.00 1 1020.2
20260830184102 68 222 0.0 4.0 0.00 0.00 0.00 1 1020.2
20260830183557 68 236 0.0 4.0 0.00 0.00 0.00 1 1020.2
20260830183039 68 66 1.0 3.0 0.00 0.00 0.00 1 1020.2
20260830182536 68 103 1.0 3.0 0.00 0.00 0.00 1 1020.2
20260830182035 68 63 0.0 2.0 0.00 0.00 0.00 1 1020.2
20260830181540 67 242 0.0 3.0 0.00 0.00 0.00 1 1020.1
20260830181032 67 255 1.0 4.0 0.00 0.00 0.00 1 1020.2
20260830180531 67 236 1.0 4.0 0.00 0.00 0.00 1 1020.2
20260830180011 67 212 0.0 3.0 0.00 0.00 0.00 1 1020.2
20260830175510 66 235 0.0 3.0 0.00 0.00 0.00 1 1020.2
20260830175008 66 225 1.0 3.0 0.00 0.00 0.00 1 1020.1
20260830174511 65 256 0.0 3.0 0.00 0.00 0.00 1 1020.1
20260830174005 64 225 0.0 3.0 0.00 0.00 0.00 1 1020.1
20260830173505 63 229 0.0 2.0 0.00 0.00 0.00 1 1020.1
20260830173046 62 75 0.0 1.0 0.00 0.00 0.00 1 1020.1
20260830172544 62 245 0.0 1.0 0.00 0.00 0.00 1 1020.1
20260830172043 63 228 0.0 1.0 0.00 0.00 0.00 1 1020.1
20260830171543 62 236 0.0 1.0 0.00 0.00 0.00 1 1020.0
20260830171043 62 46 0.0 1.0 0.00 0.00 0.00 1 1020.0
20260830170543 61 239 0.0 2.0 0.00 0.00 0.00 1 1020.0
20260830170025 61 60 0.0 1.0 0.00 0.00 0.00 1 1019.9
20260830165524 61 240 0.0 1.0 0.00 0.00 0.00 1 1019.9
20260830165025 61 245 0.0 1.0 0.00 0.00 0.00 1 1019.9
20260830164526 60 219 0.0 1.0 0.00 0.00 0.00 1 1019.9
20260830164024 60 70 0.0 1.0 0.00 0.00 0.00 1 1019.9
20260830163524 60 115 0.0 1.0 0.00 0.00 0.00 1 1020.0
20260830163012 60 236 0.0 0.0 0.00 0.00 0.00 1 1020.0
20260830162512 60 153 0.0 0.0 0.00 0.00 0.00 1 1020.0
20260830162013 60 194 0.0 1.0 0.00 0.00 0.00 1 1020.0
20260830161513 60 56 0.0 1.0 0.00 0.00 0.00 1 1020.1
20260830161013 60 66 0.0 0.0 0.00 0.00 0.00 1 1020.0
20260830160512 60 65 0.0 1.0 0.00 0.00 0.00 1 1020.0
20260830160013 60 67 0.0 1.0 0.00 0.00 0.00 1 1020.0
20260830155512 60 80 0.0 0.0 0.00 0.00 0.00 1 1019.9
20260830155012 60 81 0.0 0.0 0.00 0.00 0.00 1 1019.9
20260830154512 60 80 0.0 0.0 0.00 0.00 0.00 1 1019.9
20260830154012 60 81 0.0 0.0 0.00 0.00 0.00 1 1020.0
20260830153510 59 80 0.0 1.0 0.00 0.00 0.00 1 1020.0
20260830153027 59 81 0.0 1.0 0.00 0.00 0.00 1 1020.0
20260830152509 59 82 0.0 1.0 0.00 0.00 0.00 1 1019.9
20260830152005 59 135 0.0 0.0 0.00 0.00 0.00 1 1019.9
20260830151510 58 135 0.0 0.0 0.00 0.00 0.00 1 1019.9
20260830151005 58 135 0.0 0.0 0.00 0.00 0.00 1 1019.9
20260830150502 57 135 0.0 0.0 0.00 0.00 0.00 1 1019.9
20260830150105 57 135 0.0 0.0 0.00 0.00 0.00 1 1019.9
20260830145602 0 0.0 0.0 0.00 0.00 0.00 1020.0
20260830145059 0 0.0 0.0 0.00 0.00 0.00 1020.0
20260830144558 0 0.0 0.0 0.00 0.00 0.00 1020.0
20260830144057 0 0.0 0.0 0.00 0.00 0.00 1020.0
20260830143557 0 0.0 0.0 0.00 0.00 0.00 1019.9
20260830143102 0 0.0 0.0 0.00 0.00 0.00 1019.9
20260830142539 0 0.0 0.0 0.00 0.00 0.00 1019.9
20260830142035 0 0.0 0.0 0.00 0.00 0.00 1019.8
20260830141532 0 0.0 0.0 0.00 0.00 0.00 1019.8
20260830141032 0 0.0 0.0 0.00 0.00 0.00 1019.6
20260830140529 0 0.0 0.0 0.00 0.00 0.00 1019.6
20260830140028 0 0.0 0.0 0.00 0.00 0.00 1019.4
20260830135511 0 0.0 0.0 0.00 0.00 0.00 1019.6
20260830135011 0 0.0 0.0 0.00 0.00 0.00 1019.5
20260830134512 0 0.0 0.0 0.00 0.00 0.00 1019.5
20260830134006 0 0.0 0.0 0.00 0.00 0.00 1019.5
20260830133503 0 0.0 0.0 0.00 0.00 0.00 1019.5
20260830133010 0 0.0 0.0 0.00 0.00 0.00 1019.4
20260830132543 0 0.0 0.0 0.00 0.00 0.00 1019.3
20260830132043 0 0.0 0.0 0.00 0.00 0.00 1019.2
20260830131541 0 0.0 0.0 0.00 0.00 0.00 1019.2
20260830131039 0 0.0 0.0 0.00 0.00 0.00 1019.2
20260830130538 0 0.0 0.0 0.00 0.00 0.00 1019.3
20260830130043 0 0.0 0.0 0.00 0.00 0.00 1019.4
20260830125517 0 0.0 0.0 0.00 0.00 0.00 1019.4
20260830125016 0 0.0 0.0 0.00 0.00 0.00 1019.5
20260830124516 0 0.0 0.0 0.00 0.00 0.00 1019.5
20260830124015 0 0.0 0.0 0.00 0.00 0.00 1019.4
20260830123513 0 0.0 0.0 0.00 0.00 0.00 1019.4
20260830123011 0 0.0 0.0 0.00 0.00 0.00 1019.4
20260830122550 0 0.0 0.0 0.00 0.00 0.00 1019.3
20260830122050 0 0.0 0.0 0.00 0.00 0.00 1019.4
20260830121548 0 0.0 0.0 0.00 0.00 0.00 1019.4
20260830121047 0 0.0 0.0 0.00 0.00 0.00 1019.4
20260830120546 0 0.0 0.0 0.00 0.00 0.00 1019.5
20260830120050 0 0.0 0.0 0.00 0.00 0.00 1019.5
20260830115532 0 0.0 0.0 0.00 0.00 0.00 1019.6
20260830115025 0 0.0 0.0 0.00 0.00 0.00 1019.5
20260830114525 0 0.0 0.0 0.00 0.00 0.00 1019.5
20260830114024 0 0.0 0.0 0.00 0.00 0.00 1019.6
20260830113522 0 0.0 0.0 0.00 0.00 0.00 1019.6
20260830113019 0 0.0 0.0 0.00 0.00 0.00 1019.6
20260830112501 0 0.0 0.0 0.00 0.00 0.00 1019.5
20260830112100 0 0.0 0.0 0.00 0.00 0.00 1019.6
20260830111558 0 0.0 0.0 0.00 0.00 0.00 1019.5
20260830111057 0 0.0 0.0 0.00 0.00 0.00 1019.5
20260830110555 0 0.0 0.0 0.00 0.00 0.00 1019.5
20260830110105 0 0.0 0.0 0.00 0.00 0.00 1019.5
20260830105534 0 0.0 0.0 0.00 0.00 0.00 1019.5
20260830105035 0 0.0 0.0 0.00 0.00 0.00 1019.4
20260830104531 0 0.0 0.0 0.00 0.00 0.00 1019.5
20260830104031 0 0.0 0.0 0.00 0.00 0.00 1019.5
20260830103528 0 0.0 0.0 0.00 0.00 0.00 1019.4
20260830103028 0 0.0 0.0 0.00 0.00 0.00 1019.5
20260830102508 0 0.0 0.0 0.00 0.00 0.00 1019.5
20260830102007 0 0.0 0.0 0.00 0.00 0.00 1019.5
20260830101505 0 0.0 0.0 0.00 0.00 0.00 1019.5
20260830101004 0 0.0 0.0 0.00 0.00 0.00 1019.5
20260830100507 0 0.0 0.0 0.00 0.00 0.00 1019.5
20260830100001 0 0.0 0.0 0.00 0.00 0.00 1019.5
20260830095543 0 0.0 0.0 0.00 0.00 0.00 1019.5
20260830095042 0 0.0 0.0 0.00 0.00 0.00 1019.5
20260830094602 0 0.0 0.0 0.00 0.00 0.00 1019.4
20260830094038 0 0.0 0.0 0.00 0.00 0.00 1019.4
20260830093537 0 0.0 0.0 0.00 0.00 0.00 1019.4
20260830093038 0 0.0 0.0 0.00 0.00 0.00 1019.5
20260830092516 0 0.0 0.0 0.00 0.00 0.00 1019.4
20260830092015 0 0.0 0.0 0.00 0.00 0.00 1019.5
20260830091515 0 0.0 0.0 0.00 0.00 0.00 1019.5
20260830091016 0 0.0 0.0 0.00 0.00 0.00 1019.4
20260830090511 0 0.0 0.0 0.00 0.00 0.00 1019.5
20260830090029 0 0.0 0.0 0.00 0.00 0.00 1019.4
20260830085608 0 0.0 0.0 0.00 0.00 0.00 1019.5
20260830085049 0 0.0 0.0 0.00 0.00 0.00 1019.5
20260830084548 0 0.0 0.0 0.00 0.00 0.00 1019.5
20260830084047 0 0.0 0.0 0.00 0.00 0.00 1019.6
20260830083545 0 0.0 0.0 0.00 0.00 0.00 1019.6
20260830083048 0 0.0 0.0 0.00 0.00 0.00 1019.6
20260830082542 0 0.0 0.0 0.00 0.00 0.00 1019.5
20260830082024 0 0.0 0.0 0.00 0.00 0.00 1019.5
20260830081522 0 0.0 0.0 0.00 0.00 0.00 1019.5
20260830081020 0 0.0 0.0 0.00 0.00 0.00 1019.6
20260830080519 0 0.0 0.0 0.00 0.00 0.00 1019.5
20260830080037 0 0.0 0.0 0.00 0.00 0.00 1019.6
20260830075517 0 0.0 0.0 0.00 0.00 0.00 1019.6
20260830075100 0 0.0 0.0 0.00 0.00 0.00 1019.6
20260830074610 0 0.0 0.0 0.00 0.00 0.00 1019.6
20260830074055 0 0.0 0.0 0.00 0.00 0.00 1019.7
20260830073554 0 0.0 0.0 0.00 0.00 0.00 1019.7
20260830073107 0 0.0 0.0 0.00 0.00 0.00 1019.7
20260830072550 0 0.0 0.0 0.00 0.00 0.00 1019.7
20260830072031 0 0.0 0.0 0.00 0.00 0.00 1019.6
20260830071530 0 0.0 0.0 0.00 0.00 0.00 1019.7
20260830071030 0 0.0 0.0 0.00 0.00 0.00 1019.7
20260830070526 0 0.0 0.0 0.00 0.00 0.00 1019.6
20260830070034 0 0.0 0.0 0.00 0.00 0.00 1019.7
20260830065529 0 0.0 0.0 0.00 0.00 0.00 1019.7
20260830065007 0 0.0 0.0 0.00 0.00 0.00 1019.7
20260830064512 0 0.0 0.0 0.00 0.00 0.00 1019.7
20260830064004 56 63 0.0 3.0 0.00 0.00 0.00 1 1019.7
20260830063501 56 63 0.0 3.0 0.00 0.00 0.00 1 1019.8
20260830063101 57 18 0.0 1.0 0.00 0.00 0.00 1 1019.8
20260830062602 57 18 0.0 1.0 0.00 0.00 0.00 1 1019.8
20260830062048 57 18 0.0 1.0 0.00 0.00 0.00 1 1019.7
20260830061609 57 19 0.0 1.0 0.00 0.00 0.00 1 1019.8
20260830061048 57 9 0.0 0.0 0.00 0.00 0.00 1 1019.8
20260830060548 57 9 0.0 0.0 0.00 0.00 0.00 1 1019.9
20260830060048 57 9 0.0 1.0 0.00 0.00 0.00 1 1019.9
20260830055547 57 9 0.0 1.0 0.00 0.00 0.00 1 1019.9
20260830055048 57 226 0.0 1.0 0.00 0.00 0.00 1 1019.9
20260830054548 57 227 0.0 1.0 0.00 0.00 0.00 1 1019.9
20260830054046 57 224 0.0 1.0 0.00 0.00 0.00 1 1019.9
20260830053544 57 275 0.0 1.0 0.00 0.00 0.00 1 1019.9
20260830053043 57 22 0.0 2.0 0.00 0.00 0.00 1 1020.0
20260830052541 56 222 0.0 2.0 0.00 0.00 0.00 1 1020.0
20260830052041 56 91 0.0 0.0 0.00 0.00 0.00 1 1020.1
20260830051538 56 113 0.0 1.0 0.00 0.00 0.00 1 1020.0
20260830051037 56 113 0.0 1.0 0.00 0.00 0.00 1 1020.0
20260830050535 57 68 0.0 1.0 0.00 0.00 0.00 1 1020.0
20260830050033 57 201 0.0 1.0 0.00 0.00 0.00 1 1020.0
20260830045532 57 241 0.0 2.0 0.00 0.00 0.00 1 1019.9
20260830045031 56 37 0.0 2.0 0.00 0.00 0.00 1 1019.9
20260830044530 56 75 0.0 1.0 0.00 0.00 0.00 1 1019.8
20260830044027 56 307 0.0 6.0 0.00 0.00 0.00 1 1019.8
20260830043527 56 54 1.0 6.0 0.00 0.00 0.00 1 1019.8
20260830043025 56 52 0.0 0.0 0.00 0.00 0.00 1 1019.8
20260830042523 56 294 0.0 1.0 0.00 0.00 0.00 1 1019.7
20260830042004 56 210 0.0 2.0 0.00 0.00 0.00 1 1019.7
20260830041506 56 114 0.0 2.0 0.00 0.00 0.00 1 1019.7
20260830041001 57 215 0.0 1.0 0.00 0.00 0.00 1 1019.6
20260830040602 57 266 0.0 1.0 0.00 0.00 0.00 1 1019.6
20260830040200 57 68 0.0 1.0 0.00 0.00 0.00 1 1019.5
20260830035557 57 228 0.0 1.0 0.00 0.00 0.00 1 1019.5
20260830035041 57 32 0.0 1.0 0.00 0.00 0.00 1 1019.5